Terminal Aerodrome Forecast
Issued by NWS Austin/San Antonio, TX

Home | Current Version | Previous Version | Text Only | Print | Product List | Glossary On
Versions: 1 2 3 4 5 6 7 8 9 10 11 12 13
000
FTUS44 KEWX 291400 AAA
TAFDRT
TAF AMD
KDRT 291447Z 2915/3012 12009KT P6SM SCT025
      TEMPO 2915/2916 BKN025
     FM291800 13010KT P6SM SCT040 SCT150=

USA.gov is the U.S. government's official web portal to all federal, state and local government web resources and services.